Hourly Data Report for October 04, 2017

All times are specified in Local Standard Time (LST). Add 1 hour to adjust for Daylight Saving Time where and when it is observed.

EUREKA CLIMATE
NUNAVUT

79°59'21.000" N
85°56'02.000" W
10.00 m
2401199
71613
NEK

Download Data

Hourly Data (October 2017)
Hourly Data Report for October 4, 2017
Temp Definition
°C
Dew Point Temp Definition
°C
Rel Hum Definition
%
Wind Dir Definition
10's deg

Wind Spd Definition
km/h
Visibility Definition
km
Stn Press Definition
kPa
Hmdx Definition


Wind Chill Definition


Weather Definition


TIME
00:00 -27.0 -29.3 80 11 4   101.39   -31 LegendNANA
01:00 -28.4 -31.0 79 11 2   101.39   -31 LegendNANA
02:00 -28.6 -31.1 78 15 1   101.36   -30 LegendNANA
03:00 -28.2 -30.7 79 12 5   101.37   -34 LegendNANA
04:00 -25.9 -28.3 81 28 3   101.37   -29 LegendNANA
05:00 -26.9 -29.4 80 11 11   101.39   -36 LegendNANA
06:00 -22.5 -24.4 85 28 2   101.40   -24 LegendNANA
07:00 -16.5 -17.7 91 35 6   101.39   -21 LegendNANA
08:00 -15.7 -16.8 91 31 13   101.38   -23 LegendNANA
09:00 -15.9 -17.2 90 30 16   101.39   -24 LegendNANA
10:00 -14.3 -15.6 90 29 18   101.36   -23 LegendNANA
11:00 -13.9 -15.3 89 30 28   101.32   -24 LegendNANA
12:00 -14.1 -15.7 87 30 12   101.31   -21 LegendNANA
13:00 -14.3 -16.0 87 29 27   101.28   -25 LegendNANA
14:00 -14.4 -16.1 87 28 31   101.29   -25 LegendNANA
15:00 -14.1 -15.9 86 29 24   101.28   -24 LegendNANA
16:00 -14.1 -15.7 88 28 28   101.25   -25 LegendNANA
17:00 -14.5 -16.1 88 29 28   101.24   -25 LegendNANA
18:00 -13.9 -15.5 88 28 26   101.25   -24 LegendNANA
19:00 -13.9 -15.6 87 30 31   101.21   -25 LegendNANA
20:00 -12.6 -14.6 85 28 31   101.14   -23 LegendNANA
21:00 -15.0 -17.9 79 33 18   101.16   -24 LegendNANA
22:00 -13.2 -15.5 83 29 23   101.13   -23 LegendNANA
23:00 -12.5 -14.8 83 28 29   101.10   -23 LegendNANA

Notes on Data Quality.

Legend

  • E = Estimated
  • M = Missing
  • NA = Not Available
  • ‡ = Partner data that is not subject to review by the National Climate Archives
Date modified: